STARLINK-34768, 65095

Orbit data source: Space-Track

STARLINK-34768, 65095 is a payload satellite owned by SpaceX/Seattle (US) in LEO that was launched on Mon, 04 Aug 2025 UTC via an FALCON 9 launch vehicle from the Air Force Eastern Test Range (AFETR). Payload-class satellites include a variety of spacecraft equipped with specific instruments for various scientific and technological missions. These include communications satellites like Starlink; space stations such as the ISS; scientific satellites like the Hubble; Earth observation satellites from companies like Planet Labs, Umbra, and HawkEye 360; GPS; miniature CubeSats for education and research; and military/defense satellites.

Loading next visibility...
Identifier
65095, 2025-167T
Orbit
LEO
Country
Flag of USUS
Related business
Manufacturer
SpaceX/Seattle
Mission
Operational spacecraft
Bus & Motor
STARLINK V2MO, Unknown motor
Mass
575 kg wet, ~530 kg dry
Launch date (UTC)
2025-08-04 (1 month ago)
Launch vehicle
FALCON 9
Launch site
Air Force Eastern Test Range (AFETR)
Object type
Payload
Rocket body
Debris
Shape & HBR
Unknown
Radar Cross Section
Large (>1 m²)

Expand to show TLE details & history
Last TLE update: 10 hours ago

TLE from 10 hours ago
0 STARLINK-34768
1 65095U 25167T   25243.17716551  .00285651  00000-0  18856-2 0  9992
2 65095  53.1579 194.9999 0003551  21.2314 338.8853 15.74232266  4262
Epoch: 2025-08-31T04:15Z
TLE epoch observation values (Epoch: 2025-08-31T04:15:07.1Z)
Latitude
0.00003°
Longitude
151.61949°
Altitude
345.506 km
Speed
7.704 km/s
True Right ascension
12h 59m 59s
True Declination
0° 00' 00"
Sunlit
Object was in daylight at epoch
Visualization orbit readout
Latitude
Unknown
Longitude
Unknown
Altitude
Unknown
Speed
Unknown
Apparent Right ascension
Unknown
Apparent Declination
Unknown
Sunlit
N/A
Visualization observer readout
Local Sidereal Time
06:14:58
Azimuth
Unknown
Elevation
Unknown
Doppler factor
Unknown
Orbital elements
Apogee altitude
349.466 km
Perigee altitude
344.69 km
Semi-major axis
6,725.215 km
Eccentricity
0.00036
Inclination
53.1579°
RAAN
194.9999°
Arg. of periapsis
21.2314°
True anomaly
338.87064°
Mean anomaly
338.8853°
Eccentric anomaly
338.87797°
Mean motion
3.93535 °/min
Orbital period
91.48 mins
BSTAR
0.0018856
Loading maneuver chart data...
Computing Atmospheric mass density...
Loading historical data...
Loading historical data...
Loading historical data...
Loading historical data...
Loading historical data...
Loading historical data...
Loading historical data...

Documentation

Showing up to 5 results
|